Voltar ao catálogo

DELTA 1 DEB

AtivoUNKNOWN
NORAD 7192·DEBRIS·🇺🇸 United States

Lançado Nov 6, 1973 de Vandenberg Space Force Base

Loading…

Próximas Passagens (próximas 24 horas)

TLE

AtualizadoSource: Space-Track

Época: Sep 14, 2026, 06:59 UTC

1 07192U 73086FA  26257.29132523 -.00000030  00000-0  64544-4 0  9993
2 07192 102.2131  22.8238 0442036 102.3476 291.5457 11.59925581237458

Acompanhe DELTA 1 DEB em tempo real com AllMySat

Download on the App Store